Kingsville NAS, TX

9:15 PM CST on November 17, 2019 (GMT -0600)
Kingsville Naval Air Station

Weather History for KNQI - September, 2019

Change the Weather History Date:

Tuesday, September 17, 2019

  Actual Average Record
Temperature  
Mean Temperature 86 °F -  
Max Temperature 99 °F 88 °F 99 °F (1997)
Min Temperature 73 °F 70 °F 61 °F (2008)
Cooling Degree Days 21    
Growing Degree Days 36 (Base 50)    
Moisture  
Dew Point 72 °F    
Average Humidity 68    
Maximum Humidity 91    
Minimum Humidity 36    
Precipitation  
Precipitation 0.00 in - - ()
Sea Level Pressure  
Sea Level Pressure 29.86 in    
Wind  
Wind Speed 7 mph (NW)    
Max Wind Speed 14 mph    
Max Gust Speed 16 mph    
Visibility 10 miles    
Events      
Averages and records for this station are not official NWS values.
T = Trace of Precipitation, MM = Missing Value Source: NWS Daily Summary

Daily Weather History Graph

Daily Weather History Graph

Search for Another Location

Airport or City:

Astronomy

Sep. 17, 2019 Rise Set
Actual Time 7:17 AM CDT 7:33 PM CDT
Civil Twilight 6:54 AM CDT 7:57 PM CDT
Nautical Twilight 6:26 AM CDT 8:24 PM CDT
Astronomical Twilight 5:59 AM CDT 8:51 PM CDT
Moon 9:53 PM CDT (9/17) 10:09 AM CDT (9/17)
Length of Visible Light 13h 03m
Length of Day
12h 16m
Waning Gibbous, 89% of the Moon is Illuminated
Sep 17
Waning Gibbous
Sep 21
Last Quarter
Sep 28
New
Oct 5
First Quarter
Oct 13
Full

Hourly Weather History & Observations

Time (CDT) Temp. Heat Index Dew Point Humidity Pressure Visibility Wind Dir Wind Speed Gust Speed Precip Events Conditions
12:56 AM 75.9 °F - 72.0 °F 87% 29.87 in 10.0 mi NW 5.8 mph - N/A   Clear
1:56 AM 75.9 °F - 72.0 °F 87% 29.88 in 10.0 mi WNW 5.8 mph - N/A   Clear
2:56 AM 75.0 °F - 71.1 °F 87% 29.87 in 10.0 mi NW 6.9 mph - N/A   Clear
4:17 AM - - - N/A% - - North - - N/A   Unknown
4:56 AM 73.9 °F - 71.1 °F 91% 29.86 in 10.0 mi NNW 5.8 mph - N/A   Clear
5:56 AM 75.9 °F - 73.0 °F 91% 29.86 in 10.0 mi North 5.8 mph - N/A   Clear
6:56 AM 75.9 °F - 72.0 °F 87% 29.88 in 8.0 mi North 5.8 mph - N/A   Scattered Clouds
7:56 AM 75.0 °F - 72.0 °F 90% 29.90 in 10.0 mi NW 3.5 mph - N/A   Mostly Cloudy
8:56 AM 80.1 °F 84.5 °F 73.9 °F 81% 29.91 in 10.0 mi North 5.8 mph - N/A   Mostly Cloudy
9:16 AM - - - N/A% - - North - - N/A   Unknown
9:56 AM 82.9 °F 89.4 °F 73.9 °F 74% 29.93 in 10.0 mi North 4.6 mph - N/A   Mostly Cloudy
10:56 AM 86.0 °F 93.0 °F 73.0 °F 65% 29.94 in 10.0 mi NE 5.8 mph - N/A   Mostly Cloudy
11:56 AM 89.1 °F 96.0 °F 72.0 °F 57% 29.93 in 9.0 mi North 5.8 mph - N/A   Mostly Cloudy
12:56 PM 91.0 °F 97.6 °F 71.1 °F 52% 29.91 in 10.0 mi WNW 10.4 mph - N/A   Mostly Cloudy
1:56 PM 93.9 °F 99.1 °F 69.1 °F 44% 29.88 in 10.0 mi Variable 6.9 mph 16.1 mph N/A   Mostly Cloudy
2:56 PM 95.0 °F 99.5 °F 68.0 °F 41% 29.85 in 10.0 mi Variable 5.8 mph - N/A   Mostly Cloudy
3:56 PM 99.0 °F 104.2 °F 68.0 °F 36% 29.82 in 10.0 mi NW 5.8 mph - N/A   Mostly Cloudy
4:56 PM 97.0 °F 102.2 °F 68.0 °F 39% 29.80 in 10.0 mi SW 5.8 mph - N/A   Mostly Cloudy
5:56 PM 97.0 °F 101.0 °F 66.9 °F 37% 29.79 in 10.0 mi Calm Calm - N/A   Scattered Clouds
6:56 PM 91.9 °F 103.2 °F 75.0 °F 58% 29.80 in 10.0 mi SSE 13.8 mph - N/A   Mostly Cloudy
7:56 PM 87.1 °F 98.8 °F 77.0 °F 72% 29.81 in 10.0 mi SE 13.8 mph - N/A   Mostly Cloudy
8:56 PM 86.0 °F 98.3 °F 78.1 °F 77% 29.83 in 10.0 mi SSE 12.7 mph - N/A   Scattered Clouds
9:56 PM 84.9 °F 94.1 °F 75.9 °F 74% 29.84 in 10.0 mi South 11.5 mph - N/A   Scattered Clouds
10:56 PM 84.0 °F 91.2 °F 73.9 °F 72% 29.86 in 10.0 mi South 10.4 mph - N/A   Scattered Clouds
11:56 PM 82.9 °F 88.0 °F 72.0 °F 69% 29.86 in 10.0 mi South 12.7 mph - N/A   Scattered Clouds